Showing default

FLOCK 4G 17, 62681

Orbit data source: Space-Track

FLOCK 4G 17, 62681 is a payload satellite owned by Planet (US) in SSO that was launched on Tue, 14 Jan 2025 UTC via an FALCON 9 launch vehicle from the Air Force Western Test Range (AFWTR). Payload-class satellites include a variety of spacecraft equipped with specific instruments for various scientific and technological missions. These include communications satellites like Starlink; space stations such as the ISS; scientific satellites like the Hubble; Earth observation satellites from companies like Planet Labs, Umbra, and HawkEye 360; GPS; miniature CubeSats for education and research; and military/defense satellites.

Loading next visibility...
Identifier
62681, 2025-009CA
Orbit
SSO
Country
Flag of USUS
Related business
Manufacturer
Planet
Mission
Operational Commercial Imaging
Bus & Motor
CUBESAT 3U, Unknown motor
Mass
5.7 kg wet, 5.7 kg dry
Launch date (UTC)
2025-01-14 (1 year ago)
Launch vehicle
FALCON 9
Launch site
Air Force Western Test Range (AFWTR)
Object type
Payload
Rocket body
Debris
Shape & HBR
Box + 2 Pan, 1.0 m
Radar Cross Section
0.072 m², Medium (>0.1 m² and < 1m²)

Expand to show TLE details & history
Last TLE update: 17 hours ago

TLE from 17 hours ago
0 FLOCK 4G 17
1 62681U 25009CA  26171.20778928  .00008217  00000-0  28909-3 0  9998
2 62681  97.3919 252.5650 0003450 335.0589  25.0484 15.29594053137011
Epoch: 2026-06-20T04:59Z
TLE epoch observation values (Epoch: 2026-06-20T04:59:12.993Z)
Latitude
-0.00006°
Longitude
-90.66485°
Altitude
477.986 km
Speed
7.628 km/s
True Right ascension
16h 50m 15s
True Declination
0° 00' 00"
Sunlit
Object was in full shadow at epoch
Visualization orbit readout
Latitude
Unknown
Longitude
Unknown
Altitude
Unknown
Speed
Unknown
Apparent Right ascension
Unknown
Apparent Declination
Unknown
Sunlit
N/A
Visualization observer readout
Local Sidereal Time
08:42:59
Azimuth
Unknown
Elevation
Unknown
Doppler factor
Unknown
Orbital elements
Apogee altitude
476.341 km
Perigee altitude
471.613 km
Semi-major axis
6,852.114 km
Eccentricity
0.00035
Inclination
97.3919°
RAAN
252.565°
Arg. of periapsis
335.0589°
True anomaly
25.06514°
Mean anomaly
25.0484°
Eccentric anomaly
25.05677°
Mean motion
3.82654 °/min
Orbital period
94.08 mins
BSTAR
0.00028909
Loading maneuver chart data...
Computing Atmospheric mass density...
Loading historical data...
Loading historical data...
Loading historical data...
Loading historical data...
Loading historical data...
Loading historical data...
Loading historical data...

Documentation

Showing up to 5 results
|